Showing default

RANDEV, 52898

Orbit data source: Space-Track

RANDEV, 52898 is a payload satellite owned by KAIST (KR) in SSO that was launched on Tue, 21 Jun 2022 UTC via an NURI launch vehicle from the Naro Space Center, South Korea (NSC). Payload-class satellites include a variety of spacecraft equipped with specific instruments for various scientific and technological missions. These include communications satellites like Starlink; space stations such as the ISS; scientific satellites like the Hubble; Earth observation satellites from companies like Planet Labs, Umbra, and HawkEye 360; GPS; miniature CubeSats for education and research; and military/defense satellites.

Loading next visibility...
Identifier
52898, 2022-065E
Orbit
SSO
Country
Flag of KRKR / SKOR
Related business
Manufacturer
KAIST
Mission
Operational Civil Technology
Bus & Motor
CUBESAT 3U, Unknown motor
Mass
4 kg wet, 4 kg dry
Launch date (UTC)
2022-06-21 (4 years ago)
Launch vehicle
NURI
Launch site
Naro Space Center, South Korea (NSC)
Object type
Payload
Rocket body
Debris
Shape & HBR
Box, 0.1 m
Radar Cross Section
0.035 m², Medium (>0.1 m² and < 1m²)

Expand to show TLE details & history
Last TLE update: 22 hours ago

TLE from 22 hours ago
0 RANDEV
1 52898U 22065E   26172.51210975  .00000619  00000-0  12817-3 0  9993
2 52898  98.2225 316.7538 0008349  20.8868 339.2674 14.63696278211887
Epoch: 2026-06-21T12:17Z
TLE epoch observation values (Epoch: 2026-06-21T12:17:26.282Z)
Latitude
0.00002°
Longitude
-137.31703°
Altitude
678.741 km
Speed
7.52 km/s
True Right ascension
21h 07m 00s
True Declination
0° 00' 00"
Sunlit
Object was in full shadow at epoch
Visualization orbit readout
Latitude
Unknown
Longitude
Unknown
Altitude
Unknown
Speed
Unknown
Apparent Right ascension
Unknown
Apparent Declination
Unknown
Sunlit
N/A
Visualization observer readout
Local Sidereal Time
21:35:52
Azimuth
Unknown
Elevation
Unknown
Doppler factor
Unknown
Orbital elements
Apogee altitude
684.233 km
Perigee altitude
672.45 km
Semi-major axis
7,056.478 km
Eccentricity
0.00083
Inclination
98.2225°
RAAN
316.7538°
Arg. of periapsis
20.8868°
True anomaly
339.2335°
Mean anomaly
339.2674°
Eccentric anomaly
339.25045°
Mean motion
3.66152 °/min
Orbital period
98.32 mins
BSTAR
0.00012817
Loading maneuver chart data...
Computing Atmospheric mass density...
Loading historical data...
Loading historical data...
Loading historical data...
Loading historical data...
Loading historical data...
Loading historical data...
Loading historical data...

Documentation

Showing up to 5 results
|